Location: *
(33.6842°N, 117.7925°W)
Time: 11:35:06
(UTC+00:00)

CZ-2C R/B - Pass Details

Date: 21 October 2019
Orbit: 668 x 784 km, 98.1° (Epoch: 12 November)

Event Time Altitude Azimuth Distance (km) Brightness Sun altitude
Rises 13:25:41 0° 352° (N) 3,276 5.6 -8.0°
Reaches altitude 10° 13:28:47 10° 333° (NNW) 2,337 4.7 -7.4°
Maximum altitude 13:31:59 17° 294° (WNW) 1,887 3.9 -6.7°
Drops below altitude 10° 13:35:10 10° 255° (WSW) 2,304 4.4 -6.1°
Sets 13:38:12 0° 236° (SW) 3,208 5.3 -5.4°
